Cloud_Cover
6 3 84 9 7 33 45 42 100 100 100 100 96 86 100 86 74 82 73 55 95 99 100 100 99 90 15 30 97 100 100 100 100 100 100 100 100 100 100 100 100 100 100
31 4 1 54 14 81 51 33 100 100 100 100 91 100 89 99 77 92 96 88 100 100 100 100 100 100 100 100 100 100 100 100 100 100 100 100 100 100 100 100 100 100 100
7 18 52 16 52 99 79 56 66 100 100 100 100 100 100 100 91 82 94 96 100 100 100 98 99 100 100 100 100 100 100 100 100 100 100 100 100 100 100 100 100 100 100
45 54 24 11 37 71 90 82 64 98 100 100 94 95 100 98 100 100 88 85 88 100 100 100 100 100 100 100 100 100 100 100 100 100 100 100 100 100 100 100 100 100 100
20 4 29 29 32 71 63 84 73 100 97 100 100 100 73 42 74 100 100 95 81 83 98 100 100 99 100 100 100 100 100 100 100 100 100 100 100 100 100 100 100 100 100
5 5 22 98 81 100 43 98 66 100 96 100 100 99 68 14 16 13 51 71 100 100 90 84 73 99 100 100 100 100 100 100 100 100 100 100 100 100 100 100 100 100 100
16 6 60 100 92 100 56 84 100 100 100 100 100 100 69 10 0 0 33 94 82 96 96 91 94 36 60 69 93 100 100 100 100 100 100 100 100 100 100 100 100 100 100
49 45 100 100 87 100 69 100 100 99 93 100 94 100 39 1 2 0 3 12 32 34 52 49 18 13 18 15 19 78 100 100 100 100 100 100 100 100 100 100 100 100 100
99 100 88 70 100 100 90 95 100 100 99 79 84 97 59 5 5 5 1 5 5 5 7 5 5 5 5 5 5 10 33 30 44 98 100 100 100 100 100 100 100 100 100
36 69 70 66 100 100 100 78 89 99 100 96 73 70 5 5 15 5 13 14 5 5 4 5 5 5 5 6 50 30 5 5 6 14 6 59 63 78 96 98 99 100 99
98 88 100 100 100 100 100 100 68 91 97 86 28 72 100 97 98 7 18 60 59 27 6 54 56 80 56 68 40 5 53 100 55 5 0 1 3 4 4 1 4 4 4
86 88 100 100 100 100 100 100 100 73 100 100 82 88 85 100 85 100 73 78 99 93 81 95 54 55 87 92 22 24 100 84 31 5 5 5 5 0 3 5 5 5 5
99 100 100 100 100 100 100 100 92 100 100 100 100 100 100 100 100 100 100 100 95 98 81 62 14 7 50 98 100 100 67 98 72 62 42 4 0 5 5 8 5 6 5
100 100 100 100 100 100 100 100 100 100 100 100 100 96 100 100 100 100 100 100 100 100 100 100 88 3 3 4 5 26 46 22 56 47 99 65 61 99 100 100 100 100 100
100 100 100 100 100 100 100 100 100 100 100 100 100 100 100 100 100 100 100 96 88 100 100 92 7 84 3 2 3 4 11 12 54 95 100 79 98 98 100 96 13 47 28
100 100 100 100 100 100 100 100 100 100 100 100 100 100 100 100 100 100 98 100 96 96 26 30 55 100 100 6 81 100 97 100 97 100 100 100 100 100 100 80 23 17 5
99 100 100 100 61 65 98 100 100 100 100 100 100 100 100 100 100 100 100 96 19 0 54 77 96 100 62 12 66 75 100 100 100 100 100 100 100 100 100 100 79 5 5
66 48 51 34 50 77 59 16 5 5 5 5 5 18 37 21 0 0 2 14 17 27 89 100 100 100 100 100 99 100 100 100 100 100 100 100 100 98 42 52 5 5 4
5 10 59 67 20 2 0 0 0 0 3 2 0 2 2 5 5 5 30 41 81 97 100 100 100 98 100 100 100 100 100 100 100 100 100 99 49 81 6 5 5 4 0
2 1 1 1 0 0 1 4 5 5 5 6 5 5 5 5 5 10 62 68 96 100 100 100 100 100 100 100 99 100 100 100 100 100 72 60 15 5 5 5 3 0 0
0 0 0 4 5 5 5 5 5 5 5 24 51 10 61 100 100 100 100 100 100 100 100 100 100 100 100 100 100 100 100 100 95 74 55 5 5 5 5 2 0 0 0
3 5 5 5 5 5 5 5 5 5 10 19 96 100 100 100 100 100 100 100 100 100 100 99 97 100 100 100 100 100 100 100 90 68 55 5 5 5 4 0 0 0 0
5 5 5 5 5 5 5 5 5 44 31 23 100 97 100 100 100 100 100 100 100 100 100 100 100 100 100 100 100 100 100 100 100 79 51 13 5 4 0 0 0 0 0
12 19 48 42 36 8 5 12 11 5 6 12 5 60 34 21 99 100 100 100 100 100 100 100 100 100 100 100 100 100 100 100 100 100 94 38 5 5 0 0 0 0 0
14 16 66 100 100 82 49 83 34 5 62 58 79 40 74 98 99 100 100 100 100 100 100 100 100 100 100 100 100 100 100 100 100 100 34 5 5 4 4 1 0 0 0
100 74 99 74 70 86 58 78 97 68 20 32 76 100 100 100 100 100 100 100 100 100 100 100 100 100 100 100 100 100 100 100 79 36 5 5 4 3 0 0 0 0 0